Home   Weather   Adamstown   Past weeks

Flag for Pitcairn Islands Past Weather in Adamstown, Pitcairn Islands — Yesterday and Last 2 Weeks

Now
78 °F

Warm.


Feels Like: 81 °F
Forecast: 77 / 81 °F
Wind: 2 mph from Southwest

Location: Rikitea

Current Time: Jan 23, 2017 at 12:53:19 am

Latest Report: Jan 23, 2017 at 12:00 am


Visibility: N/A

Pressure: 30.06 "Hg

Humidity: 86%

Dew Point: 74 °F

Location of AdamstownLocation

Past Weather in Adamstown — Graph

°F

Adamstown Temperature Yesterday

Maximum temperature yesterday: 85 °F (at 2:00 pm)
Minimum temperature yesterday: 76 °F (at 6:00 am)
Average temperature yesterday: 80 °F

High & Low Weather Summary for the Past Weeks

 TemperatureHumidityPressure
High85 °F (Jan 22, 2:00 pm)93% (Jan 8, 9:00 am)30.07 "Hg (Jan 8, 9:00 am)
Low72 °F (Jan 8, 9:00 am)65% (Jan 16, 3:00 pm)29.80 "Hg (Jan 21, 5:00 am)
Average78 °F81%29.93 "Hg
* Reported Jan 7 11:00 pm — Jan 22 11:00 pm, Adamstown, Weather by CustomWeather, © 2017

Note: Actual official high and low records may vary slightly from our data, if they occured in-between our weather recording intervals... More about our weather records

Advertising

Adamstown Weather History for the Previous 24 Hours

Scroll right to see more
 ConditionsComfort  
Time TempWeatherWind HumidityBarometerVisibility
11:00 pm
Sun, Jan 22
78 °FWarm.2 mph85%30.07 "HgN/A
10:00 pm78 °FWarm.2 mph84%30.06 "HgN/A
9:00 pm78 °FWarm.3 mph85%30.04 "HgN/A
8:00 pm79 °FWarm.2 mph85%30.02 "HgN/A
7:00 pm81 °FWarm.3 mph80%29.99 "HgN/A
6:00 pm83 °FScattered clouds.No wind75%29.98 "Hg19 mi
5:00 pm82 °FPartly sunny.3 mph77%29.97 "Hg19 mi
4:00 pm82 °FOvercast.1 mph78%29.97 "Hg19 mi
3:00 pm82 °FOvercast.2 mph75%29.98 "Hg19 mi
2:00 pm85 °FOvercast.5 mph73%29.98 "Hg19 mi
1:00 pm83 °FOvercast.3 mph74%29.99 "Hg19 mi
12:00 pm83 °FPartly sunny.7 mph73%30.01 "Hg19 mi
11:00 am81 °FPartly sunny.8 mph79%30.01 "Hg25 mi
10:00 am82 °FOvercast.3 mph79%30.01 "Hg6 mi
9:00 am80 °FOvercast.5 mph82%30.00 "Hg25 mi
8:00 am78 °FOvercast.3 mph87%29.98 "Hg25 mi
7:00 am77 °FOvercast.1 mph90%29.97 "Hg25 mi
6:00 am76 °FMild.2 mph90%29.94 "HgN/A
4:00 am76 °FMild.5 mph91%29.93 "HgN/A
3:00 am77 °FMild.3 mph90%29.92 "HgN/A
2:00 am77 °FWarm.3 mph90%29.93 "HgN/A
1:00 am77 °FWarm.3 mph90%29.95 "HgN/A
12:00 am77 °FMild.3 mph89%29.96 "HgN/A
Weather by CustomWeather, © 2017

See weather overviewHow to use our weather pages